Location: Mainz-Finthen
(49.9906°N, 8.1713°E)
Time: 14:50:43
(UTC+00:00)

Envisat - Pass Details

Date: 27 September 2021
Orbit: 764 x 766 km, 98.2° (Epoch: 18 October)

Event Time Altitude Azimuth Distance (km) Brightness Sun altitude
Rises 04:20:54 0° 17° (NNE) 3,244 6.6 -10.5°
Reaches altitude 10° 04:23:17 10° 23° (NNE) 2,313 5.9 -10.1°
Maximum altitude 04:28:16 52° 100° (E) 951 4.0 -9.3°
Drops below altitude 10° 04:33:11 10° 176° (S) 2,295 5.4 -8.5°
Sets 04:35:33 0° 181° (S) 3,216 6.1 -8.2°
